This demonstration page uses our WeatherBlox Daily Observations layout. Learn more.

Left ArrowRight Arrow

40.92945, -100.16068

Hourly Observations for March 5, 2021

Temp ( °F °C ) Dew Point ( °F °C ) Humidity (%) Winds ( mph kmh ) Pressure ( in mb ) Visibility ( mi km ) Precip ( " mm )
12:15 am 00:15 Clear 44 6.7 35 1.8 71 71 E 9 15 30.17 1022 10 16 N/A
12:35 am 00:35 Clear 44 6.5 35 1.8 72 72 E 7 11 30.18 1022 10 16 N/A
12:55 am 00:55 Clear 42 5.7 35 1.8 76 76 E 3 6 30.20 1023 10 16 N/A
1:15 am 01:15 Clear 42 5.3 36 2 80 80 N N/A 30.21 1023 10 16 N/A
1:35 am 01:35 Clear 40 4.7 35 1.9 82 82 NE 6 9 30.22 1023 10 16 N/A
1:55 am 01:55 Clear 41 4.8 36 2.1 83 83 ENE 3 6 30.22 1023 10 16 N/A
2:15 am 02:15 Clear 38 3.6 35 1.7 88 88 NE 6 9 30.23 1024 10 16 N/A
2:35 am 02:35 Clear 38 3.3 35 1.4 88 88 N 3 6 30.24 1024 10 16 N/A
2:55 am 02:55 Clear 36 2.1 33 0.8 91 91 NNE 5 7 30.26 1025 10 16 N/A
3:15 am 03:15 Clear 35 1.5 33 0.5 93 93 N 5 7 30.26 1025 7 11 N/A
3:35 am 03:35 Clear 34 1.1 32 0.2 94 94 NNE 5 7 30.27 1025 7 11 N/A
3:55 am 03:55 Clear 33 0.5 32 undefined 96 96 NNE 5 7 30.27 1025 7 11 N/A
4:15 am 04:15 Clear 33 0.5 32 -0.1 96 96 N 3 6 30.28 1025 7 11 N/A
4:35 am 04:35 Clear 32 undefined 31 -0.7 95 95 N 3 6 30.30 1026 7 11 N/A
4:55 am 04:55 Clear 32 -0.1 30 -0.9 94 94 N 3 6 30.31 1026 7 11 N/A
5:15 am 05:15 Clear 31 -0.6 30 -1.3 95 95 N 3 6 30.31 1027 7 11 N/A
5:35 am 05:35 Clear 31 -0.7 29 -1.5 94 94 NNW 3 6 30.32 1027 7 11 N/A
5:55 am 05:55 Clear with Mist and Fog 30 -1 29 -1.6 96 96 NW 5 7 30.34 1027 5 8 N/A
6:15 am 06:15 Clear with Mist and Fog 29 -1.6 28 -2.3 95 95 N N/A 30.35 1028 5 8 N/A
6:35 am 06:35 Clear with Mist and Fog 29 -1.5 28 -2 96 96 WNW 5 7 30.36 1028 5 8 N/A
6:55 am 06:55 Clear with Mist and Fog 29 -1.7 28 -2.3 96 96 NW 6 9 30.36 1028 5 8 N/A
7:15 am 07:15 Sunny with Mist and Fog 28 -2 27 -2.6 96 96 NW 7 11 30.38 1029 4 6 N/A
7:35 am 07:35 Sunny with Mist and Fog 30 -1.3 29 -1.8 96 96 NW 6 9 30.37 1028 4 6 N/A
7:50 am 07:50 Sunny with Mist and Fog 30 -0.9 29 -1.5 96 96 NW 3 6 30.38 1029 4 6 N/A
8:15 am 08:15 Sunny with Mist and Fog 32 undefined 31 -0.5 96 96 N N/A 30.38 1029 4 6 N/A
8:35 am 08:35 Sunny with Mist and Fog 34 1.1 32 0.1 93 93 N N/A 30.37 1028 5 8 N/A
8:50 am 08:50 Sunny 36 2.4 34 1.2 92 92 N N/A 30.36 1028 7 11 N/A
9:15 am 09:15 Sunny 39 4.1 36 2 86 86 NNE 6 9 30.35 1028 10 16 N/A
9:35 am 09:35 Sunny 42 5.3 36 2.4 82 82 NE 5 7 30.34 1027 10 16 N/A
9:55 am 09:55 Sunny 43 6.1 37 2.5 78 78 N N/A 30.33 1027 10 16 N/A
10:15 am 10:15 Sunny 45 7 37 2.7 74 74 N N/A 30.32 1027 10 16 N/A
10:30 am 10:30 Sunny 46 7.7 37 3 72 72 N N/A 30.31 1027 10 16 N/A
10:55 am 10:55 Sunny 48 9.1 38 3.2 67 67 N N/A 30.30 1026 10 16 N/A
11:15 am 11:15 Sunny 50 10.1 38 3.4 63 63 N N/A 30.29 1026 10 16 N/A
11:35 am 11:35 Sunny 52 11.2 39 3.7 60 60 NNE 3 6 30.28 1025 10 16 N/A
12:15 pm 12:15 Sunny 55 12.9 38 3.1 52 52 NE 3 6 30.25 1025 10 16 N/A
12:35 pm 12:35 Sunny 56 13.6 37 3 49 49 E 5 7 30.25 1024 10 16 N/A
12:55 pm 12:55 Sunny 57 14.1 36 2.3 45 45 E 5 7 30.23 1024 10 16 N/A
1:15 pm 13:15 Sunny 58 14.7 35 1.9 42 42 ESE 5 7 30.23 1024 10 16 N/A
1:35 pm 13:35 Sunny 60 15.4 36 2.4 42 42 SE 7 11 30.21 1023 10 16 N/A
1:55 pm 13:55 Sunny 60 15.5 34 1.3 38 38 ESE 3 6 30.20 1023 10 16 N/A
2:10 pm 14:10 Sunny 60 15.8 35 1.4 38 38 SSE 3 6 30.19 1022 10 16 N/A
2:30 pm 14:30 Sunny 61 15.9 35 1.6 38 38 SSE 6 9 30.19 1022 10 16 N/A
2:55 pm 14:55 Sunny 61 16.1 33 0.4 35 35 W 3 6 30.19 1022 10 16 N/A
3:15 pm 15:15 Sunny 62 16.4 33 0.3 34 34 N N/A 30.17 1022 10 16 N/A
3:35 pm 15:35 Sunny 62 16.8 34 1.2 35 35 N N/A 30.17 1022 10 16 N/A
3:55 pm 15:55 Sunny 62 16.6 32 undefined 33 33 N N/A 30.16 1021 10 16 N/A
4:15 pm 16:15 Sunny 62 16.8 33 0.5 33 33 NNW 3 6 30.16 1021 10 16 N/A
4:35 pm 16:35 Sunny 62 16.7 32 0.1 33 33 SSE 3 6 30.16 1021 10 16 N/A
4:55 pm 16:55 Sunny 63 17 33 0.5 33 33 ESE 5 7 30.16 1021 10 16 N/A
5:15 pm 17:15 Sunny 62 16.8 32 0.1 32 32 E 3 6 30.16 1021 10 16 N/A
5:35 pm 17:35 Sunny 62 16.7 31 -0.3 32 32 N N/A 30.15 1021 10 16 N/A
5:55 pm 17:55 Sunny 60 15.8 36 2.3 40 40 ESE 5 7 30.16 1021 10 16 N/A
6:15 pm 18:15 Sunny 59 14.9 34 1.3 40 40 SE 6 9 30.18 1022 10 16 N/A
6:35 pm 18:35 Sunny 58 14.2 33 0.7 40 40 SE 7 11 30.18 1022 10 16 N/A
6:55 pm 18:55 Clear 56 13.3 34 1 43 43 SE 7 11 30.19 1022 10 16 N/A
7:15 pm 19:15 Clear 53 11.9 34 1.2 48 48 SSE 9 15 30.20 1023 10 16 N/A
7:35 pm 19:35 Clear 53 11.4 35 1.5 51 51 SSE 8 13 30.21 1023 10 16 N/A
7:55 pm 19:55 Clear 51 10.7 35 1.5 53 53 SSE 8 13 30.21 1023 10 16 N/A
8:15 pm 20:15 Clear 48 8.8 35 1.4 60 60 SE 7 11 30.23 1024 10 16 N/A
8:35 pm 20:35 Clear 49 9.2 35 1.5 59 59 SE 8 13 30.23 1024 10 16 N/A
8:55 pm 20:55 Clear 48 8.8 35 1.5 61 61 SE 8 13 30.23 1024 10 16 N/A
9:15 pm 21:15 Clear 47 8.4 35 1.4 62 62 SSE 8 13 30.25 1024 10 16 N/A
9:35 pm 21:35 Clear 45 7 34 1.3 67 67 SSE 7 11 30.26 1025 10 16 N/A
9:55 pm 21:55 Clear 43 6.2 34 1 70 70 SSE 7 11 30.28 1025 10 16 N/A
10:15 pm 22:15 Clear 42 5.7 34 1 72 72 SSE 7 11 30.28 1025 10 16 N/A
10:35 pm 22:35 Clear 43 6 33 0.8 70 70 SSE 8 13 30.28 1025 10 16 N/A
10:55 pm 22:55 Clear 44 6.8 34 1.1 67 67 SE 7 11 30.26 1025 10 16 N/A
11:15 pm 23:15 Clear 44 6.7 34 1 67 67 SE 8 13 30.26 1025 10 16 N/A
11:35 pm 23:35 Clear 45 7 34 1 66 66 SE 8 13 30.25 1024 10 16 N/A
11:55 pm 23:55 Clear 44 6.8 33 0.8 66 66 SE 6 9 30.25 1024 10 16 N/A

Powered by AerisWeather